[[{"header":{"parameterUnit":"m.s-1","parameterCategory":1,"la1":30.2991,"la2":30.254,"lo1":-89.0895,"lo2":-89.0444,"dy":0.0017,"dx":0.0017,"nx":28,"ny":28,"refTime":"2025-06-03T03:00:00:Z","depth":0,"parameterNumber":2,"parameterNumberName":"U-component_of_WINDS"},"data":[0,0,0,0,0,0,0,0,0,0,0,0,0,0,0,0,0,0,0,0,0,0,0,0,0,0,0,0,0,0,0,0,0,0,0,0,0,0,0,0,0,0,0,0,0,0,0,0,0,0,0,0,0,0,0,0,0,0,-6.8764,-6.8765,0,-6.8869,-6.8871,-6.8872,-6.8809,-6.8806,-6.8803,-6.88,-6.8901,-6.8907,-6.8912,0,0,0,0,0,0,0,0,0,0,0,0,0,-6.85,-6.8505,-6.8763,-6.8765,-6.8766,-6.8869,-6.8871,-6.8872,-6.8809,-6.8806,-6.8802,-6.8798,-6.8899,-6.8906,-6.8913,0,0,0,0,0,0,0,0,0,0,0,0,0,-6.8611,-6.8507,-6.8763,-6.8747,-6.8747,-6.8869,-6.8871,-6.8872,-6.881,-6.8805,-6.8801,-6.8797,-6.8897,-6.8905,-6.8913,-6.9055,0,0,-6.8939,-6.8942,0,0,0,0,0,0,0,0,-6.8605,-6.8621,-6.8748,-6.8749,-6.8748,-6.8821,-6.8815,-6.8933,-6.8811,-6.8786,-6.88,-6.8795,-6.8878,-6.8887,-6.8917,-6.906,-6.9064,-6.8939,-6.8944,-6.8948,-6.895,0,0,0,0,0,0,0,-6.8597,-6.8616,-6.8805,-6.875,-6.875,-6.8733,-6.8744,-6.8837,-6.8856,-6.8788,-6.8783,-6.8797,-6.8877,-6.8909,-6.8919,-6.9065,-6.8939,-6.8947,-6.8952,-6.8955,-6.9327,-6.9332,0,0,0,0,0,0,-6.8592,-6.861,-6.8802,-6.8808,-6.8664,-6.8741,-6.8753,-6.8802,-6.8855,-6.8858,-6.8801,-6.8794,-6.8897,-6.8909,-6.8922,-6.9088,-6.8948,-6.8956,-6.896,-6.9322,-6.9328,-6.9333,0,0,0,0,0,0,-6.8586,-6.8609,-6.8797,-6.8708,-6.8731,-6.8751,-6.8806,-6.8807,-6.8839,-6.8865,-6.8867,-6.8831,-6.8894,-6.8911,-6.9022,-6.9091,-6.8959,-6.8967,-6.9316,-6.9324,-6.9331,-6.9424,0,0,0,0,0,0,-6.8579,-6.8608,-6.8663,-6.871,-6.8736,-6.8898,-6.8811,-6.8812,-6.8854,-6.8846,-6.8893,-6.8897,-6.8892,-6.901,-6.9031,-6.91,-6.8973,-6.931,-6.932,-6.9328,-6.9415,-6.9434,-6.945,0,0,0,0,0,-6.857,-6.8684,-6.8666,-6.869,-6.8806,-6.8902,-6.8916,-6.8911,-6.886,-6.8914,-6.8931,-6.8895,-6.9082,-6.9022,-6.9045,-6.9118,-6.9306,-6.9317,-6.9328,-6.9407,-6.943,-6.9449,0,0,0,0,0,0,-6.8642,-6.869,-6.867,-6.8804,-6.885,-6.8891,-6.8959,-6.8936,-6.8995,-6.8984,-6.8973,-6.8984,-6.91,-6.9121,-6.9054,-6.9256,-6.9185,-6.9201,-6.9238,-6.926,-6.9277,-6.9267,-6.898,0,0,0,0,0,-6.8674,-6.875,-6.8787,-6.8901,-6.8926,-6.8939,-6.8981,-6.8973,-6.9019,-6.9037,-6.9062,-6.9106,-6.9174,-6.9219,-6.9283,-6.9419,-6.9427,-6.9481,-6.9498,-6.9512,-6.9525,-6.9595,-6.9619,-6.937,-6.937,-6.937,0,0,-6.8739,-6.8775,-6.8823,-6.8916,-6.8951,-6.9028,-6.8955,-6.904,-6.9096,-6.9049,-6.9155,-6.9176,-6.9224,-6.9348,-6.9404,-6.9369,-6.9596,-6.9527,-6.9538,-6.9542,-6.9609,-6.9633,-6.9653,-6.9378,-6.9376,-6.9375,0,0,-6.8896,-6.8933,-6.9031,-6.9068,-6.9122,-6.9131,-6.9155,-6.9201,-6.9213,-6.9321,-6.9287,-6.9353,-6.9472,-6.9507,-6.954,-6.9714,-6.9681,-6.9736,-6.9825,-6.9894,-6.9913,-6.993,-6.9989,-7.001,-6.9749,-6.9749,-6.9749,0,-6.8969,-6.9086,-6.9083,-6.9171,-6.9211,-6.9177,-6.9273,-6.9309,-6.9381,-6.9408,-6.937,-6.9518,-6.9548,-6.9678,-6.9721,-6.9751,-6.9775,-6.9727,-6.9911,-6.9929,-6.9944,-7.0,-7.0022,-6.9755,-6.9754,-6.9754,-6.9753,0,-6.9172,-6.9254,-6.9326,-6.9398,-6.9448,-6.954,-6.9548,-6.9599,-6.9588,-6.96,-6.9709,-6.9745,-6.9815,-6.9847,-6.9836,-6.9975,-6.9952,-6.9913,-6.984,-6.9974,-7.0025,-7.0047,-6.9763,-6.9761,-6.9759,-6.9758,0,0,-6.9372,-6.9445,-6.9471,-6.9502,-6.9561,-6.9623,-6.9713,-6.9785,-6.9826,-6.9878,-6.995,-7.0053,-7.0018,-7.0056,-7.0049,-7.0111,-7.0242,-7.0064,-7.0065,-7.0092,-7.0394,-7.0419,-7.0444,-7.0224,-7.0228,-7.0231,-7.0388,0,-6.953,-6.9689,-6.969,-6.9835,-6.9909,-6.9878,-6.9956,-6.9999,-7.0014,-7.0077,-7.0093,-7.0164,-7.0114,-7.0136,-7.0197,-7.0213,-7.0301,-7.0203,-7.0287,-7.029,-7.027,-7.0471,-7.0498,-7.0645,-7.0409,-7.0412,-7.0415,0,-6.9734,-6.9795,-6.9948,-6.9996,-7.0027,-7.0097,-7.0162,-7.0224,-7.0272,-7.0278,-7.0323,-7.0307,-7.0396,-7.0326,-7.0446,-7.0379,-7.0415,-7.0428,-7.0434,-7.0437,-7.0356,-7.0475,-7.0692,-7.0712,-7.0447,-7.0445,-7.0442,0,-6.986,-6.998,-7.0087,-7.0116,-7.0175,-7.0225,-7.0251,-7.0296,-7.0338,-7.0395,-7.0422,-7.0489,-7.0523,-7.0574,-7.0576,-7.0525,-7.0697,-7.0627,-7.0701,-7.0701,-7.0734,-7.073,-7.0954,-7.0765,-7.0765,-7.0765,-7.0764,0,-7.0033,-7.0126,-7.0144,-7.0209,-7.0313,-7.0313,-7.0415,-7.0437,-7.0477,-7.0544,-7.0523,-7.0585,-7.0586,-7.065,-7.0653,-7.075,-7.0768,-7.0772,-7.0771,-7.0772,-7.077,-7.079,-7.0778,-7.0771,-7.0769,-7.0768,-7.0767,0,-7.0188,-7.0204,-7.0318,-7.0366,-7.0381,-7.0454,-7.0494,-7.0555,-7.057,-7.0655,-7.0674,-7.0696,-7.077,-7.0779,-7.0864,-7.0866,-7.0983,-7.0973,-7.0966,-7.0963,-7.1035,-7.1026,-7.1275,-7.1306,-7.1101,-7.1103,-7.1105,0,-7.0295,-7.0366,-7.0423,-7.0468,-7.0498,-7.057,-7.0614,-7.0618,-7.0664,-7.0726,-7.0778,-7.0851,-7.0908,-7.1028,-7.1049,-7.1115,-7.1103,-7.1186,-7.1112,-7.111,-7.1099,-7.1093,-7.1098,-7.1198,-7.1201,-7.1202,-7.1204,0,-7.0481,-7.0486,-7.0551,-7.0621,-7.0674,-7.0728,-7.0779,-7.0816,-7.0826,-7.0879,-7.0956,-7.1001,-7.109,-7.1161,-7.1226,-7.125,-7.1228,-7.1228,-7.1248,-7.1246,-7.1238,-7.1239,-7.1,-7.1221,-7.1219,-7.1218,-7.1217,-7.1216,-7.0612,-7.0673,-7.0723,-7.0797,-7.0836,-7.0884,-7.0943,-7.0967,-7.1031,-7.1105,-7.1104,-7.1187,-7.1233,-7.1318,-7.1348,-7.1412,-7.1384,-7.1414,-7.142,-7.1426,-7.1431,-7.1233,-7.1425,-7.1424,-7.1424,-7.1423,-7.1423,0,-7.0793,-7.0824,-7.0893,-7.0965,-7.1022,-7.1002,-7.1056,-7.1105,-7.1179,-7.1226,-7.1284,-7.1371,-7.1441,-7.1469,-7.1537,-7.1582,-7.1573,-7.1599,-7.1593,-7.1598,-7.1455,-7.1429,-7.1605,-7.1605,-7.1605,-7.1605,-7.1605,-7.1605,-7.0893,-7.0996,-7.1007,-7.1128,-7.1158,-7.1241,-7.1274,-7.1318,-7.1355,-7.1454,-7.1512,-7.1532,-7.157,-7.1641,-7.1703,-7.1709,-7.1733,-7.1762,-7.1764,-7.1627,-7.1609,-7.1591,-7.1566,-7.1769,-7.1769,-7.1901,-7.1903,-7.1904]},{"header":{"parameterUnit":"m.s-1","parameterCategory":1,"la1":30.2991,"la2":30.254,"lo1":-89.0895,"lo2":-89.0444,"dy":0.0017,"dx":0.0017,"nx":28,"ny":28,"refTime":"2025-06-03T03:00:00:Z","depth":0,"parameterNumber":3,"parameterNumberName":"V-component_of_WINDS"},"data":[0,0,0,0,0,0,0,0,0,0,0,0,0,0,0,0,0,0,0,0,0,0,0,0,0,0,0,0,0,0,0,0,0,0,0,0,0,0,0,0,0,0,0,0,0,0,0,0,0,0,0,0,0,0,0,0,0,0,3.641,3.6411,0,3.6484,3.6485,3.6485,3.6453,3.6451,3.6449,3.6447,3.6518,3.6521,3.6525,0,0,0,0,0,0,0,0,0,0,0,0,0,3.6238,3.6242,3.641,3.6411,3.6412,3.6484,3.6485,3.6486,3.6453,3.6451,3.6449,3.6447,3.6516,3.6521,3.6525,0,0,0,0,0,0,0,0,0,0,0,0,0,3.6312,3.6243,3.641,3.6405,3.6405,3.6483,3.6485,3.6486,3.6454,3.6451,3.6448,3.6446,3.6515,3.652,3.6525,3.6612,0,0,3.6542,3.6544,0,0,0,0,0,0,0,0,3.6308,3.6319,3.6405,3.6405,3.6406,3.6456,3.645,3.6528,3.6454,3.6435,3.6447,3.6444,3.6499,3.6506,3.6525,3.6615,3.6618,3.6542,3.6545,3.6548,3.6549,0,0,0,0,0,0,0,3.6303,3.6315,3.6439,3.6406,3.6406,3.6397,3.6405,3.6464,3.6481,3.6436,3.6434,3.6444,3.6499,3.652,3.6526,3.6619,3.6542,3.6547,3.655,3.6552,3.6785,3.6788,0,0,0,0,0,0,3.6299,3.6311,3.6437,3.6441,3.6349,3.6403,3.6411,3.6443,3.648,3.6484,3.6446,3.6442,3.6512,3.652,3.6529,3.6633,3.6548,3.6553,3.6556,3.6782,3.6786,3.6789,0,0,0,0,0,0,3.6295,3.631,3.6434,3.6376,3.6391,3.6408,3.6444,3.6446,3.6467,3.6488,3.649,3.6465,3.651,3.6521,3.6592,3.6635,3.6555,3.656,3.6778,3.6783,3.6787,3.6841,0,0,0,0,0,0,3.629,3.6309,3.6343,3.6377,3.6394,3.6497,3.6447,3.6449,3.6477,3.6472,3.6506,3.6509,3.6509,3.6584,3.6597,3.6641,3.6564,3.6775,3.6781,3.6786,3.6836,3.6847,3.6857,0,0,0,0,0,3.6284,3.6354,3.6345,3.636,3.6437,3.65,3.6509,3.651,3.648,3.6514,3.6527,3.6508,3.6628,3.6592,3.6606,3.6652,3.6772,3.6779,3.6785,3.6831,3.6845,3.6857,0,0,0,0,0,0,3.6322,3.6358,3.6348,3.6431,3.6463,3.6494,3.6536,3.6524,3.6563,3.6557,3.6555,3.6563,3.6636,3.6651,3.661,3.6738,3.6695,3.6705,3.6725,3.6739,3.6749,3.6743,3.6568,0,0,0,0,0,3.634,3.639,3.6418,3.6488,3.6505,3.6518,3.6545,3.6544,3.6575,3.6588,3.6607,3.6637,3.6682,3.6711,3.6753,3.6838,3.6845,3.6877,3.6887,3.6896,3.6904,3.695,3.6965,3.6811,3.6811,3.6811,0,0,3.6378,3.6404,3.6434,3.6497,3.6521,3.6571,3.6529,3.6584,3.662,3.6596,3.6664,3.6679,3.6713,3.6791,3.6827,3.6806,3.6948,3.6905,3.6911,3.6915,3.6959,3.6973,3.6986,3.6816,3.6815,3.6814,0,0,3.6472,3.6497,3.6558,3.6584,3.6623,3.6631,3.6646,3.668,3.669,3.6759,3.6742,3.6785,3.6862,3.6887,3.691,3.7016,3.6999,3.703,3.7084,3.7129,3.7141,3.7152,3.7189,3.7203,3.7038,3.7038,3.7038,0,3.6513,3.6589,3.6591,3.6648,3.6675,3.6658,3.672,3.6744,3.6794,3.6813,3.6789,3.6887,3.6908,3.6993,3.7019,3.7038,3.7054,3.7025,3.714,3.715,3.716,3.7196,3.721,3.7042,3.7041,3.7041,3.7041,0,3.6637,3.6691,3.6736,3.6786,3.6819,3.6878,3.6888,3.6921,3.6917,3.6928,3.6999,3.7025,3.7072,3.7092,3.7088,3.7176,3.7162,3.714,3.7097,3.7178,3.7212,3.7225,3.7047,3.7045,3.7044,3.7044,0,0,3.6755,3.6808,3.6824,3.6847,3.6889,3.693,3.6988,3.7037,3.7065,3.71,3.7148,3.7215,3.7195,3.7221,3.722,3.7259,3.7342,3.7232,3.7232,3.7251,3.7441,3.7457,3.7472,3.7332,3.7334,3.7337,3.7437,0,3.6851,3.6955,3.696,3.7053,3.7102,3.7088,3.7138,3.7169,3.7182,3.7224,3.7237,3.7285,3.7254,3.727,3.7309,3.7324,3.738,3.7316,3.7375,3.7377,3.7366,3.749,3.7507,3.7601,3.7451,3.7453,3.7454,0,3.6977,3.7019,3.7118,3.7155,3.7175,3.7221,3.7266,3.7308,3.7342,3.7348,3.7379,3.7372,3.7431,3.7388,3.7468,3.7425,3.745,3.7461,3.7464,3.7469,3.742,3.7496,3.7631,3.7644,3.7475,3.7473,3.7472,0,3.7052,3.7133,3.7203,3.7223,3.7267,3.73,3.732,3.7352,3.7381,3.7421,3.744,3.7485,3.7509,3.7544,3.755,3.7518,3.7631,3.7588,3.7636,3.7636,3.7659,3.7657,3.7798,3.7677,3.7677,3.7677,3.7676,0,3.7158,3.7219,3.7237,3.728,3.7349,3.7353,3.742,3.7437,3.7467,3.7512,3.7502,3.7544,3.7549,3.7593,3.7598,3.7664,3.7675,3.7681,3.7681,3.7681,3.768,3.7696,3.7689,3.768,3.7679,3.7679,3.7678,0,3.7252,3.7267,3.7343,3.738,3.739,3.7439,3.747,3.751,3.7523,3.758,3.7594,3.7613,3.7664,3.7673,3.7733,3.7736,3.7815,3.7809,3.7803,3.7802,3.785,3.7845,3.8005,3.8026,3.7892,3.7893,3.7894,0,3.7319,3.7366,3.7409,3.744,3.7462,3.7511,3.7542,3.7548,3.7581,3.7625,3.766,3.7711,3.7751,3.7834,3.7851,3.7897,3.7892,3.7945,3.7898,3.7897,3.7892,3.7888,3.7893,3.7953,3.7954,3.7955,3.7956,0,3.7435,3.7441,3.7486,3.7535,3.7573,3.7611,3.7647,3.7672,3.7684,3.772,3.7774,3.7806,3.7868,3.7918,3.7964,3.7983,3.7972,3.7971,3.7985,3.7985,3.7979,3.7982,3.7826,3.7967,3.7966,3.7965,3.7965,3.7964,3.7517,3.7558,3.7596,3.7647,3.7676,3.771,3.7751,3.7769,3.7814,3.7867,3.7868,3.7926,3.796,3.8022,3.8044,3.8089,3.8072,3.8091,3.8096,3.81,3.8105,3.7974,3.8097,3.8097,3.8096,3.8096,3.8096,0,3.7632,3.7656,3.7703,3.7756,3.7796,3.7785,3.7824,3.7858,3.791,3.7944,3.7985,3.8047,3.8096,3.8119,3.8167,3.8199,3.8195,3.8211,3.8208,3.8212,3.8117,3.8101,3.8213,3.8213,3.8213,3.8213,3.8213,3.8213,3.7696,3.7766,3.7777,3.7861,3.7884,3.7942,3.7966,3.7997,3.8025,3.8094,3.8136,3.8152,3.8181,3.8232,3.8276,3.8281,3.8299,3.8318,3.832,3.8231,3.8219,3.8208,3.8192,3.8322,3.8322,3.8411,3.8412,3.8413]}]]